User: anonymous   Login
Location: Nians�bougou
(13.2321°N, 4.9818°W)
Time: 21:57:54
(UTC+00:00)
Language:

CZ-3 R/B - Orbit

View from above orbital plane
View from above orbital plane
View from above satellite
View from above satellite

Ground track
Ground track

The orbit data is extracted from the following two-line orbital elements,

1 29517U 06048B   20158.29865233  .00000759  00000-0  18707-3 0  9993
2 29517  28.3510 252.5006 4233412 148.9635 244.9875  6.87362802242021
Epoch (UTC): 06 June 2020 07:10:03
Eccentricity: 0.4233412
inclination: 28.3510°
perigee height: 360 km
apogee height: 10253 km
right ascension of ascending node: 252.5006°
argument of perigee: 148.9635°
revolutions per day: 6.87362802
mean anomaly at epoch: 244.9875°
orbit number at epoch: 24202

The dashed part of the orbit path shows where the satellite is in the earth's shadow,  

DLR